[[{"header":{"parameterUnit":"m.s-1","parameterCategory":1,"la1":30.2991,"la2":30.254,"lo1":-89.0895,"lo2":-89.0444,"dy":0.0017,"dx":0.0017,"nx":28,"ny":28,"refTime":"2024-06-24T03:00:00:Z","depth":0,"parameterNumber":2,"parameterNumberName":"U-component_of_WINDS"},"data":[0,0,0,0,0,0,0,0,0,0,0,0,0,0,0,0,0,0,0,0,0,0,0,0,0,0,0,0,0,0,0,0,0,0,0,0,0,0,0,0,0,0,0,0,0,0,0,0,0,0,0,0,0,0,0,0,0,0,3.0781,3.0782,0,3.088,3.0881,3.0883,3.086,3.0859,3.0857,3.0855,3.0957,3.0961,3.0966,0,0,0,0,0,0,0,0,0,0,0,0,0,3.0573,3.0577,3.0781,3.0782,3.0784,3.088,3.0881,3.0883,3.0861,3.0859,3.0856,3.0854,3.0955,3.0961,3.0966,0,0,0,0,0,0,0,0,0,0,0,0,0,3.0667,3.0579,3.0781,3.0784,3.0785,3.088,3.0881,3.0883,3.0861,3.0858,3.0856,3.0853,3.0954,3.096,3.0967,3.1064,0,0,3.0987,3.099,0,0,0,0,0,0,0,0,3.0662,3.0675,3.0782,3.0784,3.0786,3.0855,3.0846,3.0944,3.0862,3.0833,3.0855,3.0852,3.0925,3.0934,3.0959,3.1069,3.1073,3.0988,3.0992,3.0995,3.0997,0,0,0,0,0,0,0,3.0655,3.067,3.082,3.0784,3.0786,3.0781,3.0791,3.0864,3.0893,3.0835,3.0833,3.0846,3.0926,3.0953,3.0961,3.1075,3.0988,3.0993,3.0998,3.1,3.127,3.1273,0,0,0,0,0,0,3.0647,3.0665,3.0817,3.0823,3.0716,3.0787,3.0798,3.0836,3.0893,3.0899,3.0848,3.0844,3.0942,3.0953,3.0965,3.1082,3.0995,3.1001,3.1005,3.1267,3.1271,3.1274,0,0,0,0,0,0,3.0643,3.0661,3.0813,3.0744,3.0763,3.0794,3.0836,3.0839,3.0866,3.0902,3.0907,3.087,3.0941,3.0955,3.104,3.1086,3.1004,3.101,3.1263,3.1268,3.1272,3.1319,0,0,0,0,0,0,3.0637,3.066,3.0697,3.0745,3.0767,3.0886,3.0838,3.0843,3.0877,3.0874,3.0924,3.093,3.094,3.103,3.1046,3.1093,3.1015,3.1259,3.1265,3.1271,3.1313,3.1325,3.1334,0,0,0,0,0,3.063,3.0706,3.0699,3.0717,3.0814,3.0889,3.0901,3.0911,3.0881,3.0919,3.0942,3.0928,3.1078,3.1039,3.1057,3.1107,3.1256,3.1264,3.127,3.1309,3.1322,3.1334,0,0,0,0,0,0,3.0662,3.0712,3.0705,3.0799,3.084,3.0885,3.0933,3.0925,3.0975,3.097,3.0979,3.0991,3.1077,3.11,3.1055,3.1204,3.1163,3.1174,3.1186,3.1199,3.1209,3.1202,3.1021,0,0,0,0,0,3.068,3.0737,3.0778,3.0857,3.0878,3.0902,3.0935,3.0939,3.0982,3.0999,3.1029,3.1071,3.1128,3.1165,3.1219,3.1317,3.1328,3.136,3.1371,3.1379,3.1388,3.1442,3.1457,3.1297,3.1297,3.1297,0,0,3.0718,3.0752,3.0788,3.0864,3.0896,3.0955,3.0916,3.098,3.1024,3.1009,3.109,3.1114,3.1162,3.1253,3.1295,3.1276,3.1435,3.1388,3.1395,3.14,3.1451,3.1466,3.148,3.1302,3.1301,3.1301,0,0,3.0817,3.0848,3.0918,3.0951,3.1001,3.1016,3.1033,3.108,3.1095,3.1177,3.1167,3.1219,3.1317,3.1351,3.1382,3.1495,3.1484,3.1513,3.1567,3.1619,3.1632,3.1643,3.1684,3.1698,3.1522,3.1522,3.1522,0,3.0857,3.0946,3.0954,3.102,3.1054,3.1043,3.1113,3.1145,3.121,3.1234,3.1211,3.1333,3.1365,3.1464,3.1492,3.1517,3.1537,3.1506,3.1629,3.1641,3.1651,3.169,3.1705,3.1525,3.1525,3.1524,3.1524,0,3.0993,3.1055,3.1105,3.1168,3.1208,3.1275,3.1294,3.1334,3.1335,3.1353,3.1437,3.1474,3.1536,3.156,3.1561,3.1661,3.1647,3.1627,3.1585,3.167,3.1706,3.1721,3.153,3.1528,3.1527,3.1527,0,0,3.1114,3.1182,3.12,3.1229,3.1283,3.1331,3.1398,3.1459,3.1492,3.1538,3.1595,3.1678,3.166,3.1694,3.1699,3.1746,3.1833,3.172,3.1721,3.1739,3.1945,3.196,3.1977,3.1827,3.1829,3.1832,3.1941,0,3.1218,3.1336,3.1347,3.1453,3.1511,3.1501,3.156,3.16,3.1619,3.1671,3.1692,3.1751,3.1722,3.1743,3.1789,3.1813,3.1875,3.1805,3.188,3.1882,3.1867,3.1996,3.2011,3.2113,3.1955,3.1958,3.196,0,3.1355,3.1404,3.1516,3.1563,3.1588,3.164,3.1697,3.1746,3.1792,3.1802,3.1842,3.1841,3.191,3.1867,3.1963,3.1916,3.1947,3.1964,3.1968,3.1975,3.1926,3.2006,3.2145,3.216,3.1982,3.198,3.1979,0,3.1432,3.1527,3.1606,3.1631,3.1688,3.1725,3.175,3.1793,3.1829,3.1878,3.1902,3.1959,3.199,3.2035,3.205,3.2017,3.2146,3.2103,3.2157,3.2156,3.2184,3.2182,3.2329,3.2205,3.2204,3.2204,3.2204,0,3.1546,3.1615,3.1641,3.169,3.1768,3.1779,3.1856,3.1879,3.1917,3.1971,3.1967,3.2017,3.2034,3.2087,3.2099,3.2177,3.2192,3.2202,3.2205,3.2203,3.2201,3.2223,3.2216,3.2208,3.2207,3.2206,3.2206,0,3.1645,3.1665,3.1751,3.1798,3.1812,3.1867,3.1907,3.1954,3.1973,3.2041,3.2057,3.2087,3.215,3.2169,3.2245,3.2253,3.2344,3.234,3.2329,3.2329,3.2381,3.2376,3.2548,3.2571,3.2431,3.2432,3.2433,0,3.1716,3.1769,3.1822,3.1858,3.1885,3.1942,3.1979,3.1993,3.2031,3.2087,3.2128,3.219,3.224,3.2341,3.2369,3.2427,3.2425,3.2481,3.2433,3.243,3.2425,3.2422,3.2427,3.249,3.2491,3.2492,3.2493,0,3.1841,3.1849,3.1902,3.1959,3.2003,3.2048,3.2092,3.2122,3.2142,3.2186,3.225,3.2289,3.2366,3.2428,3.2487,3.2514,3.2507,3.2508,3.2524,3.2522,3.2513,3.2518,3.2353,3.2504,3.2503,3.2502,3.2502,3.2501,3.1928,3.1975,3.202,3.2079,3.2114,3.2155,3.2202,3.2227,3.228,3.2344,3.235,3.2419,3.2464,3.2542,3.2572,3.2627,3.261,3.2633,3.2638,3.2644,3.2648,3.2505,3.2638,3.2637,3.2637,3.2637,3.2637,0,3.2053,3.2081,3.2136,3.2197,3.2244,3.2235,3.2283,3.2323,3.2384,3.2426,3.2476,3.255,3.261,3.2643,3.2703,3.2741,3.274,3.2756,3.2753,3.276,3.2659,3.2639,3.2756,3.2756,3.2756,3.2756,3.2756,3.2756,3.2123,3.2202,3.2215,3.2311,3.2339,3.2407,3.2435,3.2473,3.2507,3.259,3.264,3.2661,3.27,3.2763,3.2818,3.2827,3.2849,3.2867,3.2874,3.2779,3.2767,3.2755,3.2737,3.2872,3.2872,3.297,3.2971,3.2972]},{"header":{"parameterUnit":"m.s-1","parameterCategory":1,"la1":30.2991,"la2":30.254,"lo1":-89.0895,"lo2":-89.0444,"dy":0.0017,"dx":0.0017,"nx":28,"ny":28,"refTime":"2024-06-24T03:00:00:Z","depth":0,"parameterNumber":3,"parameterNumberName":"V-component_of_WINDS"},"data":[0,0,0,0,0,0,0,0,0,0,0,0,0,0,0,0,0,0,0,0,0,0,0,0,0,0,0,0,0,0,0,0,0,0,0,0,0,0,0,0,0,0,0,0,0,0,0,0,0,0,0,0,0,0,0,0,0,0,-0.5351,-0.5351,0,-0.5348,-0.5348,-0.5348,-0.5346,-0.5346,-0.5346,-0.5346,-0.5342,-0.5342,-0.5342,0,0,0,0,0,0,0,0,0,0,0,0,0,-0.5354,-0.5354,-0.5351,-0.5351,-0.5351,-0.5348,-0.5348,-0.5348,-0.5346,-0.5346,-0.5346,-0.5346,-0.5342,-0.5342,-0.5342,0,0,0,0,0,0,0,0,0,0,0,0,0,-0.5352,-0.5354,-0.5351,-0.5349,-0.5349,-0.5348,-0.5348,-0.5348,-0.5346,-0.5346,-0.5346,-0.5346,-0.5342,-0.5342,-0.5342,-0.5342,0,0,-0.5342,-0.5342,0,0,0,0,0,0,0,0,-0.5352,-0.5352,-0.535,-0.5349,-0.5349,-0.5347,-0.5348,-0.5346,-0.5346,-0.5347,-0.5346,-0.5346,-0.5344,-0.5344,-0.5343,-0.5341,-0.5341,-0.5342,-0.5342,-0.5342,-0.5342,0,0,0,0,0,0,0,-0.5353,-0.5352,-0.5349,-0.535,-0.5349,-0.5349,-0.5349,-0.5347,-0.5346,-0.5347,-0.5347,-0.5347,-0.5344,-0.5343,-0.5343,-0.5341,-0.5342,-0.5342,-0.5342,-0.5342,-0.5339,-0.5339,0,0,0,0,0,0,-0.5353,-0.5352,-0.535,-0.5349,-0.5351,-0.5349,-0.5348,-0.5348,-0.5346,-0.5345,-0.5347,-0.5347,-0.5344,-0.5343,-0.5343,-0.5342,-0.5342,-0.5342,-0.5341,-0.5339,-0.5339,-0.5339,0,0,0,0,0,0,-0.5353,-0.5353,-0.535,-0.5351,-0.535,-0.5349,-0.5348,-0.5348,-0.5347,-0.5345,-0.5345,-0.5346,-0.5343,-0.5343,-0.5342,-0.5342,-0.5341,-0.5341,-0.5339,-0.5339,-0.5339,-0.5341,0,0,0,0,0,0,-0.5353,-0.5353,-0.5352,-0.5351,-0.535,-0.5349,-0.5348,-0.5348,-0.5347,-0.5347,-0.5345,-0.5345,-0.5343,-0.5342,-0.5342,-0.5342,-0.5341,-0.5339,-0.5339,-0.5339,-0.5341,-0.5341,-0.5341,0,0,0,0,0,-0.5353,-0.5353,-0.5352,-0.5352,-0.535,-0.5349,-0.5349,-0.5347,-0.5347,-0.5347,-0.5346,-0.5345,-0.5342,-0.5342,-0.5342,-0.5342,-0.5339,-0.5339,-0.5339,-0.5341,-0.5341,-0.5341,0,0,0,0,0,0,-0.5354,-0.5353,-0.5352,-0.5351,-0.535,-0.5349,-0.5348,-0.5347,-0.5346,-0.5346,-0.5345,-0.5344,-0.5343,-0.5343,-0.5342,-0.5341,-0.5341,-0.5341,-0.5342,-0.5342,-0.5342,-0.5342,-0.5341,0,0,0,0,0,-0.5354,-0.5354,-0.5352,-0.5351,-0.5351,-0.535,-0.5349,-0.5348,-0.5347,-0.5347,-0.5345,-0.5344,-0.5343,-0.5343,-0.5342,-0.5341,-0.534,-0.5341,-0.5341,-0.5341,-0.5341,-0.534,-0.534,-0.5339,-0.5339,-0.5339,0,0,-0.5354,-0.5353,-0.5353,-0.5352,-0.5351,-0.535,-0.5349,-0.5348,-0.5348,-0.5346,-0.5345,-0.5345,-0.5343,-0.5342,-0.5342,-0.5342,-0.5341,-0.5341,-0.5341,-0.5341,-0.534,-0.5341,-0.5341,-0.5339,-0.5339,-0.5339,0,0,-0.5354,-0.5353,-0.5353,-0.5352,-0.5351,-0.535,-0.535,-0.5349,-0.5348,-0.5347,-0.5346,-0.5346,-0.5344,-0.5343,-0.5342,-0.5343,-0.5342,-0.5342,-0.5343,-0.5343,-0.5343,-0.5343,-0.5343,-0.5343,-0.5342,-0.5342,-0.5342,0,-0.5354,-0.5353,-0.5353,-0.5352,-0.5351,-0.5351,-0.535,-0.5349,-0.5348,-0.5347,-0.5347,-0.5345,-0.5344,-0.5343,-0.5343,-0.5343,-0.5343,-0.5342,-0.5343,-0.5343,-0.5343,-0.5343,-0.5343,-0.5342,-0.5342,-0.5342,-0.5342,0,-0.5354,-0.5353,-0.5353,-0.5352,-0.5351,-0.535,-0.535,-0.5349,-0.5349,-0.5348,-0.5347,-0.5346,-0.5345,-0.5345,-0.5344,-0.5344,-0.5344,-0.5343,-0.5342,-0.5343,-0.5343,-0.5343,-0.5343,-0.5343,-0.5343,-0.5342,0,0,-0.5353,-0.5352,-0.5352,-0.5352,-0.5351,-0.535,-0.535,-0.5349,-0.5349,-0.5348,-0.5347,-0.5346,-0.5346,-0.5345,-0.5345,-0.5344,-0.5345,-0.5344,-0.5344,-0.5344,-0.5345,-0.5345,-0.5345,-0.5345,-0.5345,-0.5345,-0.5345,0,-0.5353,-0.5352,-0.5352,-0.5351,-0.535,-0.535,-0.5349,-0.5349,-0.5348,-0.5348,-0.5347,-0.5347,-0.5346,-0.5346,-0.5346,-0.5345,-0.5345,-0.5345,-0.5344,-0.5344,-0.5344,-0.5345,-0.5345,-0.5345,-0.5345,-0.5345,-0.5345,0,-0.5352,-0.5352,-0.5351,-0.535,-0.535,-0.535,-0.5349,-0.5349,-0.5348,-0.5348,-0.5347,-0.5347,-0.5347,-0.5346,-0.5346,-0.5346,-0.5345,-0.5345,-0.5345,-0.5345,-0.5344,-0.5345,-0.5345,-0.5345,-0.5345,-0.5345,-0.5345,0,-0.5352,-0.5351,-0.5351,-0.535,-0.535,-0.535,-0.5349,-0.5349,-0.5348,-0.5348,-0.5348,-0.5347,-0.5347,-0.5347,-0.5346,-0.5346,-0.5346,-0.5345,-0.5345,-0.5345,-0.5345,-0.5345,-0.5345,-0.5345,-0.5345,-0.5345,-0.5345,0,-0.5351,-0.5351,-0.5351,-0.535,-0.535,-0.535,-0.5349,-0.5349,-0.5349,-0.5348,-0.5348,-0.5348,-0.5347,-0.5347,-0.5346,-0.5346,-0.5346,-0.5345,-0.5345,-0.5345,-0.5345,-0.5345,-0.5345,-0.5345,-0.5345,-0.5345,-0.5345,0,-0.5351,-0.5351,-0.535,-0.535,-0.535,-0.535,-0.5349,-0.5349,-0.5349,-0.5348,-0.5348,-0.5348,-0.5347,-0.5347,-0.5346,-0.5346,-0.5346,-0.5346,-0.5346,-0.5346,-0.5346,-0.5346,-0.5346,-0.5346,-0.5346,-0.5346,-0.5346,0,-0.535,-0.535,-0.535,-0.535,-0.535,-0.5349,-0.5349,-0.5349,-0.5349,-0.5348,-0.5348,-0.5348,-0.5348,-0.5347,-0.5347,-0.5346,-0.5346,-0.5346,-0.5346,-0.5346,-0.5346,-0.5346,-0.5346,-0.5346,-0.5346,-0.5346,-0.5346,0,-0.535,-0.535,-0.5349,-0.5349,-0.5349,-0.5349,-0.5349,-0.5349,-0.5348,-0.5348,-0.5348,-0.5348,-0.5348,-0.5347,-0.5347,-0.5347,-0.5347,-0.5347,-0.5346,-0.5346,-0.5347,-0.5346,-0.5346,-0.5346,-0.5346,-0.5346,-0.5346,-0.5346,-0.5349,-0.5349,-0.5349,-0.5349,-0.5349,-0.5348,-0.5348,-0.5348,-0.5348,-0.5348,-0.5348,-0.5348,-0.5348,-0.5347,-0.5347,-0.5347,-0.5347,-0.5347,-0.5347,-0.5347,-0.5347,-0.5347,-0.5347,-0.5347,-0.5347,-0.5347,-0.5347,0,-0.5348,-0.5348,-0.5348,-0.5348,-0.5348,-0.5348,-0.5348,-0.5348,-0.5348,-0.5348,-0.5348,-0.5348,-0.5348,-0.5347,-0.5347,-0.5347,-0.5347,-0.5347,-0.5347,-0.5347,-0.5347,-0.5347,-0.5347,-0.5347,-0.5347,-0.5347,-0.5347,-0.5347,-0.5347,-0.5347,-0.5347,-0.5347,-0.5347,-0.5347,-0.5347,-0.5347,-0.5347,-0.5347,-0.5347,-0.5347,-0.5347,-0.5348,-0.5347,-0.5347,-0.5347,-0.5348,-0.5347,-0.5347,-0.5347,-0.5347,-0.5347,-0.5348,-0.5348,-0.5348,-0.5348,-0.5348]}]]